IZ2WMD-13 Weather Reports


Display with metric or nautical units.
time (UTC)temp
F
wind
direction
speed
MPH
gust
MPH
rain 1hr
in
rain 24hr
in
rain mn
in
humidity
%
barometer
mb
20260506090845 55 0.0 0.0 0.00 0.00 0.00 100 1008.5
20260506084840 55 0.0 0.0 0.00 0.00 0.00 100 1008.4
20260506082835 56 0.0 0.0 0.00 0.00 0.00 97 1008.3
20260506080831 57 0.0 0.0 0.00 0.00 0.00 97 1008.0
20260506072820 56 0.0 0.0 0.00 0.00 0.00 100 1008.3
20260506070815 55 0.0 0.0 0.00 0.00 0.00 100 1008.8
20260506050746 55 0.0 0.0 0.00 0.00 0.00 100 1009.3
20260506044741 55 0.0 0.0 0.00 0.00 0.00 100 1009.3
20260506042736 55 0.0 0.0 0.00 0.00 0.00 100 1009.3
20260506040731 55 0.0 0.0 0.00 0.00 0.00 100 1009.5
20260506034727 55 0.0 0.0 0.00 0.00 0.00 100 1009.3
20260506032721 55 0.0 0.0 0.00 0.00 0.00 100 1009.3
20260506030716 55 0.0 0.0 0.00 0.00 0.00 100 1009.6
20260506024712 55 0.0 0.0 0.00 0.00 0.00 100 1009.9
20260506022707 55 0.0 0.0 0.00 0.00 0.00 100 1010.3
20260506020702 55 0.0 0.0 0.00 0.00 0.00 100 1010.3
20260506014657 55 0.0 0.0 0.00 0.00 0.00 100 1010.2
20260506012652 55 0.0 0.0 0.00 0.00 0.00 100 1010.4
20260506010647 55 0.0 0.0 0.00 0.00 0.00 100 1010.6
20260506004642 55 0.0 0.0 0.00 0.00 0.00 100 1010.8
20260506002637 55 0.0 0.0 0.00 0.00 0.00 100 1011.0
20260506000632 55 0.0 0.0 0.00 0.00 0.00 100 1011.2
20260505234627 55 0.0 0.0 0.00 0.00 0.00 100 1011.3
20260505232622 55 0.0 0.0 0.00 0.00 0.00 100 1011.2
20260505224613 55 0.0 0.0 0.00 0.00 0.00 100 1011.5
20260505222606 55 0.0 0.0 0.00 0.00 0.00 100 1011.6
20260505220602 55 0.0 0.0 0.00 0.00 0.00 100 1011.7
20260505214556 55 0.0 0.0 0.00 0.00 0.00 100 1011.9
20260505212552 55 0.0 0.0 0.00 0.00 0.00 100 1012.1
20260505210547 55 0.0 0.0 0.00 0.00 0.00 100 1012.3
20260505204542 55 0.0 0.0 0.00 0.00 0.00 100 1012.4
20260505202537 55 0.0 0.0 0.00 0.00 0.00 100 1012.5
20260505200532 55 0.0 0.0 0.00 0.00 0.00 99 1012.4
20260505194527 55 0.0 0.0 0.00 0.00 0.00 97 1012.3
20260505192522 55 0.0 0.0 0.00 0.00 0.00 97 1012.1
20260505190517 55 0.0 0.0 0.00 0.00 0.00 98 1012.0
20260505184513 55 0.0 0.0 0.00 0.00 0.00 97 1011.9
20260505182508 56 0.0 0.0 0.00 0.00 0.00 96 1011.9
20260505180503 56 0.0 0.0 0.00 0.00 0.00 96 1011.9
20260505174458 56 0.0 0.0 0.00 0.00 0.00 97 1011.8
20260505172453 56 0.0 0.0 0.00 0.00 0.00 97 1011.9
20260505170448 56 0.0 0.0 0.00 0.00 0.00 96 1011.9
20260505164443 56 0.0 0.0 0.00 0.00 0.00 97 1011.9
20260505162439 56 0.0 0.0 0.00 0.00 0.00 97 1012.0
20260505160433 56 0.0 0.0 0.00 0.00 0.00 98 1012.1
20260505152424 56 0.0 0.0 0.00 0.00 0.00 99 1012.3
20260505140405 55 0.0 0.0 0.00 0.00 0.00 98 1012.5
20260505124345 55 0.0 0.0 0.00 0.00 0.00 97 1012.6
20260505122340 55 0.0 0.0 0.00 0.00 0.00 97 1012.7
20260505120336 56 0.0 0.0 0.00 0.00 0.00 97 1012.8
20260505114330 55 0.0 0.0 0.00 0.00 0.00 97 1012.9
20260505112325 56 0.0 0.0 0.00 0.00 0.00 95 1012.8
20260505100306 58 0.0 0.0 0.00 0.00 0.00 84 1012.4
20260505094302 58 0.0 0.0 0.00 0.00 0.00 84 1012.3